Time,TemperatureF,DewpointF,PressureIn,WindDirection,WindDirectionDegrees,WindSpeedMPH,WindSpeedGustMPH,Humidity,HourlyPrecipIn,Conditions,Clouds,dailyrainin,SoftwareType,DateUTC
2013-01-06 00:01:00,36.0,14.6,29.57,NE,40,0.0,0.0,41,0.00,,---,0.00,VWS V14.01,2013-01-06 08:01:00,
2013-01-06 00:11:00,36.0,15.1,29.57,NE,40,0.0,0.0,42,0.00,,---,0.00,VWS V14.01,2013-01-06 08:11:00,
2013-01-06 00:16:00,35.9,14.5,29.56,NE,40,0.0,0.0,41,0.00,,---,0.00,VWS V14.01,2013-01-06 08:16:00,
2013-01-06 00:21:00,35.9,14.5,29.56,NE,40,0.0,0.0,41,0.00,,---,0.00,VWS V14.01,2013-01-06 08:21:00,
2013-01-06 00:31:00,35.5,14.7,29.56,NE,40,0.0,0.0,42,0.00,,---,0.00,VWS V14.01,2013-01-06 08:31:00,
2013-01-06 00:36:00,35.3,15.1,29.56,NE,40,0.0,0.0,43,0.00,,---,0.00,VWS V14.01,2013-01-06 08:36:00,
2013-01-06 00:41:00,35.0,14.8,29.56,NE,40,0.0,0.0,43,0.00,,---,0.00,VWS V14.01,2013-01-06 08:41:00,
2013-01-06 00:46:00,34.9,14.7,29.56,NE,40,0.0,0.0,43,0.00,,---,0.00,VWS V14.01,2013-01-06 08:46:00,
2013-01-06 00:56:00,34.9,15.2,29.56,NE,40,0.0,0.0,44,0.00,,---,0.00,VWS V14.01,2013-01-06 08:56:00,
2013-01-06 01:01:00,35.0,14.8,29.56,NE,40,0.0,0.0,43,0.00,,---,0.00,VWS V14.01,2013-01-06 09:01:00,
2013-01-06 01:06:00,34.9,15.7,29.56,NE,44,0.0,0.0,45,0.00,,---,0.00,VWS V14.01,2013-01-06 09:06:00,
2013-01-06 01:11:00,34.7,15.6,29.56,NE,44,0.0,0.0,45,0.00,,---,0.00,VWS V14.01,2013-01-06 09:11:00,
2013-01-06 01:16:00,34.6,15.5,29.56,NE,44,0.0,0.0,45,0.00,,---,0.00,VWS V14.01,2013-01-06 09:16:00,
2013-01-06 01:26:00,34.6,15.5,29.56,NE,42,0.0,0.0,45,0.00,,---,0.00,VWS V14.01,2013-01-06 09:26:00,
2013-01-06 01:31:00,34.7,15.6,29.55,NE,42,0.0,0.0,45,0.00,,---,0.00,VWS V14.01,2013-01-06 09:31:00,
2013-01-06 01:36:00,34.9,15.7,29.55,NE,41,0.0,0.0,45,0.00,,---,0.00,VWS V14.01,2013-01-06 09:36:00,
2013-01-06 01:46:00,35.3,15.6,29.55,NE,41,0.0,0.0,44,0.00,,---,0.00,VWS V14.01,2013-01-06 09:46:00,
2013-01-06 01:56:00,35.5,16.3,29.55,NE,41,0.0,0.0,45,0.00,,---,0.00,VWS V14.01,2013-01-06 09:56:00,
2013-01-06 02:06:00,35.5,16.3,29.55,NE,41,0.0,0.0,45,0.00,,---,0.00,VWS V14.01,2013-01-06 10:06:00,
2013-01-06 02:16:00,35.5,16.3,29.55,NE,41,0.0,0.0,45,0.00,,---,0.00,VWS V14.01,2013-01-06 10:16:00,
2013-01-06 02:21:00,35.5,16.3,29.55,NE,41,0.0,0.0,45,0.00,,---,0.00,VWS V14.01,2013-01-06 10:21:00,
2013-01-06 02:26:00,35.5,15.8,29.55,NE,41,0.0,1.0,44,0.00,,---,0.00,VWS V14.01,2013-01-06 10:26:00,
2013-01-06 02:31:00,35.8,16.0,29.55,NE,42,0.0,1.0,44,0.00,,---,0.00,VWS V14.01,2013-01-06 10:31:00,
2013-01-06 02:41:00,35.8,16.0,29.55,NE,41,0.0,0.0,44,0.00,,---,0.00,VWS V14.01,2013-01-06 10:41:00,
2013-01-06 02:46:00,35.9,15.6,29.54,NE,41,0.0,0.0,43,0.00,,---,0.00,VWS V14.01,2013-01-06 10:46:00,
2013-01-06 02:56:00,35.8,15.5,29.54,NE,41,0.0,0.0,43,0.00,,---,0.00,VWS V14.01,2013-01-06 10:56:00,
2013-01-06 03:01:00,35.8,15.5,29.53,NE,41,0.0,0.0,43,0.00,,---,0.00,VWS V14.01,2013-01-06 11:01:00,
2013-01-06 03:06:00,35.9,15.6,29.53,ENE,68,0.0,1.0,43,0.00,,---,0.00,VWS V14.01,2013-01-06 11:06:00,
2013-01-06 03:11:00,35.9,15.1,29.53,ENE,59,0.0,0.0,42,0.00,,---,0.00,VWS V14.01,2013-01-06 11:11:00,
2013-01-06 03:21:00,35.9,15.1,29.53,NE,41,0.0,0.0,42,0.00,,---,0.00,VWS V14.01,2013-01-06 11:21:00,
2013-01-06 03:31:00,35.6,15.9,29.53,NNE,21,0.0,1.0,44,0.00,,---,0.00,VWS V14.01,2013-01-06 11:31:00,
2013-01-06 03:36:00,35.3,16.1,29.53,West,281,1.0,2.0,45,0.00,,---,0.00,VWS V14.01,2013-01-06 11:36:00,
2013-01-06 03:41:00,35.3,16.1,29.53,West,281,0.0,1.0,45,0.00,,---,0.00,VWS V14.01,2013-01-06 11:41:00,
2013-01-06 03:51:00,35.2,16.0,29.52,West,281,0.0,0.0,45,0.00,,---,0.00,VWS V14.01,2013-01-06 11:51:00,
2013-01-06 04:01:00,35.3,15.6,29.51,West,281,0.0,0.0,44,0.00,,---,0.00,VWS V14.01,2013-01-06 12:01:00,
2013-01-06 04:06:00,35.5,15.2,29.51,West,281,0.0,0.0,43,0.00,,---,0.00,VWS V14.01,2013-01-06 12:06:00,
2013-01-06 04:11:00,35.6,15.9,29.51,West,281,0.0,0.0,44,0.00,,---,0.00,VWS V14.01,2013-01-06 12:11:00,
2013-01-06 04:16:00,35.6,15.9,29.52,West,281,0.0,0.0,44,0.00,,---,0.00,VWS V14.01,2013-01-06 12:16:00,
2013-01-06 04:21:00,35.5,15.8,29.52,West,281,0.0,0.0,44,0.00,,---,0.00,VWS V14.01,2013-01-06 12:21:00,
2013-01-06 04:26:00,35.5,16.3,29.52,West,281,0.0,0.0,45,0.00,,---,0.00,VWS V14.01,2013-01-06 12:26:00,
2013-01-06 04:36:00,35.5,16.3,29.51,West,281,0.0,0.0,45,0.00,,---,0.00,VWS V14.01,2013-01-06 12:36:00,
2013-01-06 04:41:00,35.5,16.8,29.51,West,281,0.0,0.0,46,0.00,,---,0.00,VWS V14.01,2013-01-06 12:41:00,
2013-01-06 04:46:00,35.5,16.3,29.51,West,281,0.0,0.0,45,0.00,,---,0.00,VWS V14.01,2013-01-06 12:46:00,
2013-01-06 04:56:00,35.6,16.4,29.51,West,281,0.0,0.0,45,0.00,,---,0.00,VWS V14.01,2013-01-06 12:56:00,
2013-01-06 05:01:00,35.6,16.9,29.51,West,281,0.0,0.0,46,0.00,,---,0.00,VWS V14.01,2013-01-06 13:01:00,
2013-01-06 05:06:00,35.6,16.9,29.51,West,281,0.0,0.0,46,0.00,,---,0.00,VWS V14.01,2013-01-06 13:06:00,
2013-01-06 05:11:00,35.6,16.9,29.51,West,281,0.0,0.0,46,0.00,,---,0.00,VWS V14.01,2013-01-06 13:11:00,
2013-01-06 05:21:00,35.9,16.6,29.51,West,281,0.0,0.0,45,0.00,,---,0.00,VWS V14.01,2013-01-06 13:21:00,
2013-01-06 05:26:00,35.9,16.6,29.51,West,281,0.0,0.0,45,0.00,,---,0.00,VWS V14.01,2013-01-06 13:26:00,
2013-01-06 05:31:00,35.9,16.6,29.50,West,281,0.0,0.0,45,0.00,,---,0.00,VWS V14.01,2013-01-06 13:31:00,
2013-01-06 05:36:00,35.9,16.6,29.50,West,281,0.0,0.0,45,0.00,,---,0.00,VWS V14.01,2013-01-06 13:36:00,
2013-01-06 05:41:00,35.6,16.9,29.50,West,281,0.0,0.0,46,0.00,,---,0.00,VWS V14.01,2013-01-06 13:41:00,
2013-01-06 05:51:00,35.5,17.3,29.50,West,281,0.0,0.0,47,0.00,,---,0.00,VWS V14.01,2013-01-06 13:51:00,
2013-01-06 05:56:00,35.5,17.3,29.50,West,281,0.0,0.0,47,0.00,,---,0.00,VWS V14.01,2013-01-06 13:56:00,
2013-01-06 06:06:00,35.0,17.3,29.50,West,281,0.0,0.0,48,0.00,,---,0.00,VWS V14.01,2013-01-06 14:06:00,
2013-01-06 06:11:00,34.9,17.2,29.50,West,281,0.0,0.0,48,0.00,,---,0.00,VWS V14.01,2013-01-06 14:11:00,
2013-01-06 06:21:00,34.9,17.7,29.51,West,281,0.0,0.0,49,0.00,,---,0.00,VWS V14.01,2013-01-06 14:21:00,
2013-01-06 06:26:00,34.9,17.7,29.51,West,281,0.0,0.0,49,0.00,,---,0.00,VWS V14.01,2013-01-06 14:26:00,
2013-01-06 06:36:00,34.9,18.2,29.51,West,281,0.0,0.0,50,0.00,,---,0.00,VWS V14.01,2013-01-06 14:36:00,
2013-01-06 06:41:00,34.9,18.2,29.51,West,281,0.0,0.0,50,0.00,,---,0.00,VWS V14.01,2013-01-06 14:41:00,
2013-01-06 06:46:00,34.9,18.2,29.51,West,281,0.0,0.0,50,0.00,,---,0.00,VWS V14.01,2013-01-06 14:46:00,
2013-01-06 06:56:00,35.0,18.2,29.51,West,281,0.0,0.0,50,0.00,,---,0.00,VWS V14.01,2013-01-06 14:56:00,
2013-01-06 07:01:00,35.0,18.2,29.52,West,281,0.0,0.0,50,0.00,,---,0.00,VWS V14.01,2013-01-06 15:01:00,
2013-01-06 07:06:00,35.2,18.4,29.52,West,281,0.0,1.0,50,0.00,,---,0.00,VWS V14.01,2013-01-06 15:06:00,
2013-01-06 07:16:00,35.2,17.5,29.51,West,281,0.0,0.0,48,0.00,,---,0.00,VWS V14.01,2013-01-06 15:16:00,
2013-01-06 07:21:00,35.0,17.3,29.51,West,281,0.0,0.0,48,0.00,,---,0.00,VWS V14.01,2013-01-06 15:21:00,
2013-01-06 07:26:00,34.9,17.7,29.51,West,281,0.0,1.0,49,0.00,,---,0.00,VWS V14.01,2013-01-06 15:26:00,
2013-01-06 07:31:00,34.6,17.4,29.52,West,281,0.0,0.0,49,0.00,,---,0.00,VWS V14.01,2013-01-06 15:31:00,
2013-01-06 07:36:00,34.1,17.0,29.52,West,281,0.0,1.0,49,0.00,,---,0.00,VWS V14.01,2013-01-06 15:36:00,
2013-01-06 07:41:00,33.7,16.6,29.52,West,281,0.0,1.0,49,0.00,,---,0.00,VWS V14.01,2013-01-06 15:41:00,
2013-01-06 07:46:00,33.8,17.1,29.51,West,281,0.0,0.0,50,0.00,,---,0.00,VWS V14.01,2013-01-06 15:46:00,
2013-01-06 07:51:00,34.6,17.9,29.51,West,281,0.0,0.0,50,0.00,,---,0.00,VWS V14.01,2013-01-06 15:51:00,
2013-01-06 08:01:00,36.3,17.5,29.51,West,281,0.0,1.0,46,0.00,,---,0.00,VWS V14.01,2013-01-06 16:01:00,
2013-01-06 08:11:00,37.8,17.9,29.51,West,281,0.0,1.0,44,0.00,,---,0.00,VWS V14.01,2013-01-06 16:11:00,
2013-01-06 08:16:00,39.2,17.5,29.51,West,281,0.0,1.0,41,0.00,,---,0.00,VWS V14.01,2013-01-06 16:16:00,
2013-01-06 08:21:00,39.9,16.4,29.51,West,281,1.0,2.0,38,0.00,,---,0.00,VWS V14.01,2013-01-06 16:21:00,
2013-01-06 08:26:00,40.2,16.0,29.51,SSE,162,0.0,2.0,37,0.00,,---,0.00,VWS V14.01,2013-01-06 16:26:00,
2013-01-06 08:31:00,40.8,15.9,29.51,SSE,162,0.0,0.0,36,0.00,,---,0.00,VWS V14.01,2013-01-06 16:31:00,
2013-01-06 08:41:00,42.3,15.9,29.51,SSE,162,1.0,2.0,34,0.00,,---,0.00,VWS V14.01,2013-01-06 16:41:00,
2013-01-06 08:51:00,41.8,16.2,29.50,SSE,164,1.0,2.0,35,0.00,,---,0.00,VWS V14.01,2013-01-06 16:51:00,
2013-01-06 08:56:00,42.5,16.1,29.50,SSE,164,0.0,2.0,34,0.00,,---,0.00,VWS V14.01,2013-01-06 16:56:00,
2013-01-06 09:06:00,43.9,16.0,29.50,SSE,162,0.0,1.0,32,0.00,,---,0.00,VWS V14.01,2013-01-06 17:06:00,
2013-01-06 09:16:00,45.4,15.8,29.50,SSE,161,0.0,1.0,30,0.00,,---,0.00,VWS V14.01,2013-01-06 17:16:00,
2013-01-06 09:26:00,46.0,15.5,29.50,ESE,106,1.0,2.0,29,0.00,,---,0.00,VWS V14.01,2013-01-06 17:26:00,
2013-01-06 09:31:00,44.6,15.1,29.50,East,89,2.0,3.0,30,0.00,,---,0.00,VWS V14.01,2013-01-06 17:31:00,
2013-01-06 09:36:00,44.3,15.6,29.50,East,85,0.0,2.0,31,0.00,,---,0.00,VWS V14.01,2013-01-06 17:36:00,
2013-01-06 09:41:00,44.6,15.9,29.50,North,11,1.0,2.0,31,0.00,,---,0.00,VWS V14.01,2013-01-06 17:41:00,
2013-01-06 09:46:00,44.5,15.8,29.50,North,10,1.0,1.0,31,0.00,,---,0.00,VWS V14.01,2013-01-06 17:46:00,
2013-01-06 09:51:00,45.1,15.5,29.50,North,0,1.0,1.0,30,0.00,,---,0.00,VWS V14.01,2013-01-06 17:51:00,
2013-01-06 09:56:00,45.2,14.9,29.50,North,0,0.0,1.0,29,0.00,,---,0.00,VWS V14.01,2013-01-06 17:56:00,
2013-01-06 10:01:00,46.1,15.6,29.49,North,0,0.0,2.0,29,0.00,,---,0.00,VWS V14.01,2013-01-06 18:01:00,
2013-01-06 10:11:00,47.4,15.9,29.49,NNE,17,1.0,1.0,28,0.00,,---,0.00,VWS V14.01,2013-01-06 18:11:00,
2013-01-06 10:21:00,47.3,15.0,29.48,NNE,17,0.0,1.0,27,0.00,,---,0.00,VWS V14.01,2013-01-06 18:21:00,
2013-01-06 10:31:00,48.0,14.8,29.48,NE,42,0.0,1.0,26,0.00,,---,0.00,VWS V14.01,2013-01-06 18:31:00,
2013-01-06 10:36:00,48.0,14.8,29.48,NE,45,0.0,2.0,26,0.00,,---,0.00,VWS V14.01,2013-01-06 18:36:00,
2013-01-06 10:41:00,48.6,14.4,29.48,NE,45,0.0,0.0,25,0.00,,---,0.00,VWS V14.01,2013-01-06 18:41:00,
2013-01-06 10:46:00,49.6,15.2,29.47,NE,45,0.0,0.0,25,0.00,,---,0.00,VWS V14.01,2013-01-06 18:46:00,
2013-01-06 10:51:00,49.5,14.2,29.47,NE,45,0.0,2.0,24,0.00,,---,0.00,VWS V14.01,2013-01-06 18:51:00,
2013-01-06 10:56:00,48.6,14.4,29.47,NE,55,1.0,2.0,25,0.00,,---,0.00,VWS V14.01,2013-01-06 18:56:00,
2013-01-06 11:06:00,47.6,13.5,29.46,NE,55,0.0,2.0,25,0.00,,---,0.00,VWS V14.01,2013-01-06 19:06:00,
2013-01-06 11:16:00,47.6,13.5,29.44,ESE,107,1.0,3.0,25,0.00,,---,0.00,VWS V14.01,2013-01-06 19:16:00,
2013-01-06 11:21:00,48.3,14.1,29.44,ESE,103,1.0,3.0,25,0.00,,---,0.00,VWS V14.01,2013-01-06 19:21:00,
2013-01-06 11:31:00,48.6,14.4,29.43,ENE,72,1.0,5.0,25,0.00,,---,0.00,VWS V14.01,2013-01-06 19:31:00,
2013-01-06 11:46:00,48.6,14.4,29.42,SE,141,3.0,5.0,25,0.00,,---,0.00,VWS V14.01,2013-01-06 19:46:00,
2013-01-06 11:51:00,48.5,14.3,29.42,SSE,150,0.0,5.0,25,0.00,,---,0.00,VWS V14.01,2013-01-06 19:51:00,
2013-01-06 12:01:00,48.8,14.6,29.42,SE,140,0.0,2.0,25,0.00,,---,0.00,VWS V14.01,2013-01-06 20:01:00,
2013-01-06 12:11:00,48.8,14.6,29.42,ESE,121,1.0,1.0,25,0.00,,---,0.00,VWS V14.01,2013-01-06 20:11:00,
2013-01-06 12:16:00,48.9,14.6,29.41,ESE,121,0.0,2.0,25,0.00,,---,0.00,VWS V14.01,2013-01-06 20:16:00,
2013-01-06 12:21:00,48.9,14.6,29.41,SSE,157,0.0,2.0,25,0.00,,---,0.00,VWS V14.01,2013-01-06 20:21:00,
2013-01-06 12:26:00,48.9,14.6,29.41,SSE,148,2.0,2.0,25,0.00,,---,0.00,VWS V14.01,2013-01-06 20:26:00,
2013-01-06 12:31:00,49.1,13.9,29.40,South,169,0.0,2.0,24,0.00,,---,0.00,VWS V14.01,2013-01-06 20:31:00,
2013-01-06 12:41:00,49.4,14.1,29.40,South,178,0.0,4.0,24,0.00,,---,0.00,VWS V14.01,2013-01-06 20:41:00,
2013-01-06 12:51:00,50.1,13.8,29.39,SSW,212,0.0,3.0,23,0.00,,---,0.00,VWS V14.01,2013-01-06 20:51:00,
2013-01-06 12:56:00,50.2,12.8,29.39,SSW,206,0.0,5.0,22,0.00,,---,0.00,VWS V14.01,2013-01-06 20:56:00,
2013-01-06 13:01:00,50.2,13.9,29.39,SSE,158,1.0,3.0,23,0.00,,---,0.00,VWS V14.01,2013-01-06 21:01:00,
2013-01-06 13:06:00,50.4,13.0,29.39,SSE,152,0.0,2.0,22,0.00,,---,0.00,VWS V14.01,2013-01-06 21:06:00,
2013-01-06 13:11:00,50.1,12.8,29.39,SSE,165,3.0,3.0,22,0.00,,---,0.00,VWS V14.01,2013-01-06 21:11:00,
2013-01-06 13:16:00,50.1,12.8,29.38,South,171,0.0,3.0,22,0.00,,---,0.00,VWS V14.01,2013-01-06 21:16:00,
2013-01-06 13:26:00,49.9,13.6,29.38,SSE,147,0.0,2.0,23,0.00,,---,0.00,VWS V14.01,2013-01-06 21:26:00,
2013-01-06 13:31:00,50.1,13.8,29.38,SSE,168,0.0,1.0,23,0.00,,---,0.00,VWS V14.01,2013-01-06 21:31:00,
2013-01-06 13:36:00,49.9,13.6,29.38,South,169,0.0,1.0,23,0.00,,---,0.00,VWS V14.01,2013-01-06 21:36:00,
2013-01-06 13:41:00,49.9,13.6,29.38,South,169,0.0,0.0,23,0.00,,---,0.00,VWS V14.01,2013-01-06 21:41:00,
2013-01-06 13:51:00,50.4,14.0,29.37,SSE,165,0.0,0.0,23,0.00,,---,0.00,VWS V14.01,2013-01-06 21:51:00,
2013-01-06 13:56:00,50.5,13.1,29.37,SSE,167,0.0,0.0,22,0.00,,---,0.00,VWS V14.01,2013-01-06 21:56:00,
2013-01-06 14:06:00,50.2,13.9,29.36,ENE,76,0.0,2.0,23,0.00,,---,0.00,VWS V14.01,2013-01-06 22:06:00,
2013-01-06 14:11:00,50.4,14.0,29.36,ENE,76,0.0,0.0,23,0.00,,---,0.00,VWS V14.01,2013-01-06 22:11:00,
2013-01-06 14:16:00,50.4,14.0,29.37,ENE,76,0.0,2.0,23,0.00,,---,0.00,VWS V14.01,2013-01-06 22:16:00,
2013-01-06 14:21:00,50.4,14.0,29.37,ENE,75,0.0,0.0,23,0.00,,---,0.00,VWS V14.01,2013-01-06 22:21:00,
2013-01-06 14:31:00,51.0,14.5,29.36,ENE,75,0.0,0.0,23,0.00,,---,0.00,VWS V14.01,2013-01-06 22:31:00,
2013-01-06 14:36:00,51.3,15.8,29.36,ENE,73,0.0,0.0,24,0.00,,---,0.00,VWS V14.01,2013-01-06 22:36:00,
2013-01-06 14:46:00,52.2,16.5,29.36,ENE,65,0.0,2.0,24,0.00,,---,0.00,VWS V14.01,2013-01-06 22:46:00,
2013-01-06 14:56:00,52.5,16.8,29.36,NE,37,1.0,2.0,24,0.00,,---,0.00,VWS V14.01,2013-01-06 22:56:00,
2013-01-06 15:06:00,52.2,15.5,29.35,ENE,61,1.0,4.0,23,0.00,,---,0.00,VWS V14.01,2013-01-06 23:06:00,
2013-01-06 15:11:00,52.2,15.5,29.35,NE,40,2.0,3.0,23,0.00,,---,0.00,VWS V14.01,2013-01-06 23:11:00,
2013-01-06 15:21:00,51.9,15.3,29.35,ENE,71,0.0,3.0,23,0.00,,---,0.00,VWS V14.01,2013-01-06 23:21:00,
2013-01-06 15:31:00,51.9,16.3,29.36,ENE,59,0.0,2.0,24,0.00,,---,0.00,VWS V14.01,2013-01-06 23:31:00,
2013-01-06 15:36:00,51.7,16.1,29.36,East,80,2.0,5.0,24,0.00,,---,0.00,VWS V14.01,2013-01-06 23:36:00,
2013-01-06 15:41:00,51.0,15.5,29.36,ENE,68,1.0,6.0,24,0.00,,---,0.00,VWS V14.01,2013-01-06 23:41:00,
2013-01-06 15:46:00,50.8,16.3,29.36,East,79,0.0,3.0,25,0.00,,---,0.00,VWS V14.01,2013-01-06 23:46:00,
2013-01-06 15:56:00,51.6,16.0,29.36,ENE,75,0.0,0.0,24,0.00,,---,0.00,VWS V14.01,2013-01-06 23:56:00,
2013-01-06 16:06:00,52.0,16.4,29.35,NNE,18,0.0,1.0,24,0.00,,---,0.00,VWS V14.01,2013-01-07 00:06:00,
2013-01-06 16:16:00,51.9,16.3,29.35,North,7,1.0,4.0,24,0.00,,---,0.00,VWS V14.01,2013-01-07 00:16:00,
2013-01-06 16:21:00,51.6,17.0,29.35,NNE,20,1.0,3.0,25,0.00,,---,0.00,VWS V14.01,2013-01-07 00:21:00,
2013-01-06 16:26:00,51.4,16.8,29.35,NNE,18,0.0,3.0,25,0.00,,---,0.00,VWS V14.01,2013-01-07 00:26:00,
2013-01-06 16:31:00,51.1,17.4,29.35,NNE,18,0.0,1.0,26,0.00,,---,0.00,VWS V14.01,2013-01-07 00:31:00,
2013-01-06 16:41:00,50.4,17.7,29.35,ENE,64,0.0,1.0,27,0.00,,---,0.00,VWS V14.01,2013-01-07 00:41:00,
2013-01-06 16:51:00,49.6,17.0,29.35,NE,52,0.0,3.0,27,0.00,,---,0.00,VWS V14.01,2013-01-07 00:51:00,
2013-01-06 17:01:00,48.9,16.4,29.35,NNE,32,1.0,1.0,27,0.00,,---,0.00,VWS V14.01,2013-01-07 01:01:00,
2013-01-06 17:06:00,48.6,16.1,29.35,NE,47,0.0,1.0,27,0.00,,---,0.00,VWS V14.01,2013-01-07 01:06:00,
2013-01-06 17:11:00,48.5,16.1,29.35,NNE,30,0.0,1.0,27,0.00,,---,0.00,VWS V14.01,2013-01-07 01:11:00,
2013-01-06 17:16:00,48.2,16.6,29.36,NNE,30,0.0,1.0,28,0.00,,---,0.00,VWS V14.01,2013-01-07 01:16:00,
2013-01-06 17:21:00,48.0,16.5,29.36,NNE,31,0.0,1.0,28,0.00,,---,0.00,VWS V14.01,2013-01-07 01:21:00,
2013-01-06 17:26:00,47.9,16.4,29.36,NE,34,0.0,1.0,28,0.00,,---,0.00,VWS V14.01,2013-01-07 01:26:00,
2013-01-06 17:36:00,47.6,16.9,29.36,NNE,31,0.0,1.0,29,0.00,,---,0.00,VWS V14.01,2013-01-07 01:36:00,
2013-01-06 17:46:00,47.4,16.8,29.36,ENE,59,0.0,1.0,29,0.00,,---,0.00,VWS V14.01,2013-01-07 01:46:00,
2013-01-06 17:51:00,47.3,16.7,29.36,NE,51,0.0,1.0,29,0.00,,---,0.00,VWS V14.01,2013-01-07 01:51:00,
2013-01-06 18:01:00,47.0,17.2,29.36,NE,38,0.0,2.0,30,0.00,,---,0.00,VWS V14.01,2013-01-07 02:01:00,
2013-01-06 18:06:00,46.8,17.0,29.36,NNE,24,0.0,1.0,30,0.00,,---,0.00,VWS V14.01,2013-01-07 02:06:00,
2013-01-06 18:16:00,46.4,17.4,29.37,NNE,24,0.0,0.0,31,0.00,,---,0.00,VWS V14.01,2013-01-07 02:16:00,
2013-01-06 18:21:00,46.4,15.9,29.37,NNE,28,0.0,2.0,29,0.00,,---,0.00,VWS V14.01,2013-01-07 02:21:00,
2013-01-06 18:31:00,45.8,16.1,29.37,NNE,27,0.0,1.0,30,0.00,,---,0.00,VWS V14.01,2013-01-07 02:31:00,
2013-01-06 18:36:00,45.4,15.8,29.37,NNE,32,0.0,0.0,30,0.00,,---,0.00,VWS V14.01,2013-01-07 02:36:00,
2013-01-06 18:46:00,44.5,15.0,29.37,NNE,32,0.0,1.0,30,0.00,,---,0.00,VWS V14.01,2013-01-07 02:46:00,
2013-01-06 18:51:00,44.1,16.9,29.37,NE,41,0.0,1.0,33,0.00,,---,0.00,VWS V14.01,2013-01-07 02:51:00,
2013-01-06 18:56:00,43.6,15.7,29.37,NNE,32,0.0,1.0,32,0.00,,---,0.00,VWS V14.01,2013-01-07 02:56:00,
2013-01-06 19:01:00,43.3,15.4,29.38,ENE,76,1.0,3.0,32,0.00,,---,0.00,VWS V14.01,2013-01-07 03:01:00,
2013-01-06 19:11:00,42.9,16.5,29.38,ENE,64,0.0,1.0,34,0.00,,---,0.00,VWS V14.01,2013-01-07 03:11:00,
2013-01-06 19:16:00,42.8,16.4,29.37,NNE,30,0.0,3.0,34,0.00,,---,0.00,VWS V14.01,2013-01-07 03:16:00,
2013-01-06 19:26:00,42.5,16.1,29.37,NNE,24,0.0,0.0,34,0.00,,---,0.00,VWS V14.01,2013-01-07 03:26:00,
2013-01-06 19:31:00,42.1,16.4,29.38,NNE,24,1.0,1.0,35,0.00,,---,0.00,VWS V14.01,2013-01-07 03:31:00,
2013-01-06 19:36:00,41.9,17.5,29.38,NNE,24,0.0,1.0,37,0.00,,---,0.00,VWS V14.01,2013-01-07 03:36:00,
2013-01-06 19:41:00,42.1,16.4,29.38,NNE,18,0.0,2.0,35,0.00,,---,0.00,VWS V14.01,2013-01-07 03:41:00,
2013-01-06 19:51:00,41.9,16.3,29.39,NNW,342,0.0,1.0,35,0.00,,---,0.00,VWS V14.01,2013-01-07 03:51:00,
2013-01-06 20:01:00,41.5,16.5,29.39,NNW,342,0.0,0.0,36,0.00,,---,0.00,VWS V14.01,2013-01-07 04:01:00,
2013-01-06 20:11:00,41.1,16.8,29.39,NNW,342,0.0,0.0,37,0.00,,---,0.00,VWS V14.01,2013-01-07 04:11:00,
2013-01-06 20:16:00,40.8,16.6,29.37,NNW,342,0.0,0.0,37,0.00,,---,0.00,VWS V14.01,2013-01-07 04:16:00,
2013-01-06 20:26:00,40.1,16.5,29.37,NNW,342,0.0,0.0,38,0.00,,---,0.00,VWS V14.01,2013-01-07 04:26:00,
2013-01-06 20:36:00,39.6,15.5,29.38,NNW,342,0.0,0.0,37,0.00,,---,0.00,VWS V14.01,2013-01-07 04:36:00,
2013-01-06 20:46:00,39.5,16.6,29.38,NNW,342,0.0,1.0,39,0.00,,---,0.00,VWS V14.01,2013-01-07 04:46:00,
2013-01-06 20:51:00,39.5,16.6,29.38,NNW,342,0.0,0.0,39,0.00,,---,0.00,VWS V14.01,2013-01-07 04:51:00,
2013-01-06 20:56:00,39.3,17.0,29.38,NNW,342,0.0,1.0,40,0.00,,---,0.00,VWS V14.01,2013-01-07 04:56:00,
2013-01-06 21:01:00,39.1,16.8,29.38,NNW,342,0.0,0.0,40,0.00,,---,0.00,VWS V14.01,2013-01-07 05:01:00,
2013-01-06 21:11:00,38.5,16.3,29.38,NNW,342,0.0,0.0,40,0.00,,---,0.00,VWS V14.01,2013-01-07 05:11:00,
2013-01-06 21:21:00,37.9,16.3,29.37,NNW,342,0.0,0.0,41,0.00,,---,0.00,VWS V14.01,2013-01-07 05:21:00,
2013-01-06 21:26:00,37.8,16.2,29.37,NNW,342,0.0,0.0,41,0.00,,---,0.00,VWS V14.01,2013-01-07 05:26:00,
2013-01-06 21:31:00,37.5,16.5,29.37,NNW,342,0.0,0.0,42,0.00,,---,0.00,VWS V14.01,2013-01-07 05:31:00,
2013-01-06 21:36:00,37.3,16.3,29.37,NNW,342,0.0,0.0,42,0.00,,---,0.00,VWS V14.01,2013-01-07 05:36:00,
2013-01-06 21:41:00,37.2,16.8,29.37,NNW,342,0.0,0.0,43,0.00,,---,0.00,VWS V14.01,2013-01-07 05:41:00,
2013-01-06 21:51:00,36.9,16.5,29.37,NNW,342,0.0,0.0,43,0.00,,---,0.00,VWS V14.01,2013-01-07 05:51:00,
2013-01-06 21:56:00,36.6,16.8,29.37,NNW,342,0.0,0.0,44,0.00,,---,0.00,VWS V14.01,2013-01-07 05:56:00,
2013-01-06 22:06:00,36.2,16.4,29.38,NNW,342,0.0,1.0,44,0.00,,---,0.00,VWS V14.01,2013-01-07 06:06:00,
2013-01-06 22:16:00,36.2,16.9,29.37,NNW,342,0.0,0.0,45,0.00,,---,0.00,VWS V14.01,2013-01-07 06:16:00,
2013-01-06 22:21:00,36.2,16.4,29.37,NNW,342,0.0,0.0,44,0.00,,---,0.00,VWS V14.01,2013-01-07 06:21:00,
2013-01-06 22:31:00,36.2,16.4,29.37,NNW,343,0.0,0.0,44,0.00,,---,0.00,VWS V14.01,2013-01-07 06:31:00,
2013-01-06 22:36:00,35.6,16.4,29.37,NNW,343,0.0,0.0,45,0.00,,---,0.00,VWS V14.01,2013-01-07 06:36:00,
2013-01-06 22:41:00,35.3,16.6,29.37,NNW,344,0.0,0.0,46,0.00,,---,0.00,VWS V14.01,2013-01-07 06:41:00,
2013-01-06 22:46:00,35.0,16.8,29.38,NNW,344,0.0,0.0,47,0.00,,---,0.00,VWS V14.01,2013-01-07 06:46:00,
2013-01-06 22:51:00,35.3,17.1,29.38,NNW,344,0.0,0.0,47,0.00,,---,0.00,VWS V14.01,2013-01-07 06:51:00,
2013-01-06 23:01:00,35.5,16.8,29.38,NNW,344,1.0,1.0,46,0.00,,---,0.00,VWS V14.01,2013-01-07 07:01:00,
2013-01-06 23:11:00,35.0,17.3,29.38,NNW,344,0.0,0.0,48,0.00,,---,0.00,VWS V14.01,2013-01-07 07:11:00,
2013-01-06 23:21:00,35.6,17.9,29.38,NNW,344,0.0,1.0,48,0.00,,---,0.00,VWS V14.01,2013-01-07 07:21:00,
2013-01-06 23:26:00,35.9,17.6,29.38,NNW,344,0.0,0.0,47,0.00,,---,0.00,VWS V14.01,2013-01-07 07:26:00,
2013-01-06 23:36:00,36.2,17.9,29.38,NNW,344,0.0,0.0,47,0.00,,---,0.00,VWS V14.01,2013-01-07 07:36:00,
2013-01-06 23:46:00,35.9,17.1,29.38,NNW,344,0.0,0.0,46,0.00,,---,0.00,VWS V14.01,2013-01-07 07:46:00,
2013-01-06 23:51:00,35.5,17.3,29.38,NNW,344,0.0,0.0,47,0.00,,---,0.00,VWS V14.01,2013-01-07 07:51:00,